sat.trackr.live / text

‹ back to catalog

STARLINK-36644

NORAD 67821 · 2026-033A

PAYLOAD ACTIVE UNKNOWN

§ Identity

Operator
Country
US
Launch date
2026-02-16
Launch site
AFETR
Launch vehicle
Mass (kg)
RCS (m²)

Purposes: comms

External: N2YO · Heavens-Above · Gunter

§ Orbital elements

Epoch: 2026-05-25T04:24:18.572256Z

Period
94.27 min
Inclination
42.9962°
Eccentricity
0.0000526
Mean motion
15.27600125 rev/d
Perigee alt
482.6 km
Apogee alt
483.3 km
Semi-major
6,861.1 km
B*
5.0220e-4
RAAN
194.9818°
Arg perigee
77.9659°
Mean anomaly
282.1251°
Rev number
1,637

§ Raw data

STARLINK-366441 67821U 26033A   26145.18354829  .00013592  00000+0  50220-3 0  99972 67821  42.9962 194.9818 0000526  77.9659 282.1251 15.27600125 16371

JSON: /api/v1/satellites/67821 · /tle

For live sub-satellite position, see the globe view (requires WebGL).

§ Visibility from observer

Set your observer location to see the next 7 days of passes ≥ 10°. The values pass through the URL so the page stays shareable.

No JS? Fill the form by hand. The geolocation button needs JavaScript.